Powrót do katalogu

NINGXIA-1 10

AktywnyNaukaLEO
NORAD 49022·PAYLOAD·🇨🇳 China

Wystrzelony Jul 9, 2021 z Taiyuan Satellite Launch Center

Loading…

Następne Przeloty (najbliższe 24 godziny)

TLE

ŚwieżeSource: Space-Track

Epoka: Sep 14, 2026, 14:04 UTC

1 49022U 21064E   26257.58642998 -.00000060  00000-0  41681-4 0  9994
2 49022  44.9990 182.5433 0009023 324.7307  35.2932 14.08563379266835

Śledź NINGXIA-1 10 w czasie rzeczywistym z AllMySat

Download on the App Store